Frisco, NC

7:07 PM EDT on August 29, 2016 (GMT -0400)
Mitchell

Weather History for KHSE - March, 2014

Change the Weather History Date:

Monday, March 31, 2014

  Actual Average Record
Temperature  
Mean Temperature 48 °F 55 °F  
Max Temperature 57 °F 62 °F 79 °F (1910)
Min Temperature 38 °F 48 °F 31 °F (1971)
Degree Days  
Heating Degree Days 17 10  
Month to date heating degree days 503 418  
Since 1 July heating degree days 2336 2343  
Cooling Degree Days 0 0  
Month to date cooling degree days 0 3  
Year to date cooling degree days 0 3  
Moisture  
Dew Point 37 °F    
Average Humidity 72    
Maximum Humidity 92    
Minimum Humidity 51    
Precipitation  
Precipitation 0.00 in 0.16 in 2.56 in (1987)
Month to date precipitation 5.48 4.77  
Year to date precipitation 15.57 14.03  
Snow  
Snow 0.00 in - - ()
Month to date snowfall 0.0  
Since 1 July snowfall 5.7  
Snow Depth 0.00 in    
Sea Level Pressure  
Sea Level Pressure 29.97 in    
Wind  
Wind Speed 10 mph (NNW)    
Max Wind Speed 21 mph    
Max Gust Speed 35 mph    
Visibility 10 miles    
Events      
T = Trace of Precipitation, MM = Missing Value Source: NWS Daily Summary

Daily Weather History Graph

Daily Weather History Graph

Search for Another Location

Airport or City:

Trip Planner

Search our weather history database for the weather conditions in past years. The results will help you decide how hot, cold, wet, or windy it might be!

Date:

Astronomy

Mar. 31, 2014 Rise Set
Actual Time 6:50 AM EDT 7:23 PM EDT
Civil Twilight 6:25 AM EDT 7:48 PM EDT
Nautical Twilight 5:55 AM EDT 8:18 PM EDT
Astronomical Twilight 5:24 AM EDT 8:49 PM EDT
Moon 7:14 AM EDT (3/31) 8:35 PM EDT (3/31)
Length of Visible Light 13h 23m
Length of Day
12h 32m
New Moon, 1% of the Moon is Illuminated
Mar 31
New Moon
Apr 7
First Quarter
Apr 15
Full
Apr 22
Last Quarter
Apr 29
New

Hourly Weather History & Observations

Time (EDT) Temp. Windchill Dew Point Humidity Pressure Visibility Wind Dir Wind Speed Gust Speed Precip Events Conditions
12:51 AM 46.9 °F - 39.9 °F 77% 29.84 in 10.0 mi NW 17.3 mph 35.7 mph 0.00 in   Overcast
1:51 AM 46.9 °F - 39.0 °F 74% 29.84 in 10.0 mi NW 16.1 mph 31.1 mph N/A   Overcast
2:51 AM 46.9 °F - 39.0 °F 74% 29.84 in 10.0 mi NW 16.1 mph 26.5 mph N/A   Overcast
3:51 AM 46.9 °F - 37.9 °F 71% 29.84 in 10.0 mi NW 18.4 mph 31.1 mph N/A   Overcast
4:51 AM 46.9 °F - 37.0 °F 68% 29.85 in 10.0 mi NW 17.3 mph 26.5 mph N/A   Overcast
5:51 AM 46.9 °F - 35.1 °F 63% 29.86 in 10.0 mi NW 17.3 mph 29.9 mph N/A   Overcast
6:51 AM 46.9 °F - 34.0 °F 61% 29.89 in 10.0 mi NNW 17.3 mph 35.7 mph N/A   Overcast
7:51 AM 46.9 °F - 34.0 °F 61% 29.93 in 10.0 mi NNW 15.0 mph 28.8 mph N/A   Overcast
8:51 AM 46.9 °F - 35.1 °F 63% 29.95 in 10.0 mi NNW 15.0 mph 25.3 mph N/A   Overcast
9:51 AM 46.9 °F - 34.0 °F 61% 29.97 in 10.0 mi NNW 11.5 mph 24.2 mph N/A   Overcast
10:51 AM 48.9 °F - 35.1 °F 59% 29.99 in 10.0 mi NNW 11.5 mph 21.9 mph N/A   Scattered Clouds
11:51 AM 52.0 °F - 35.1 °F 53% 29.99 in 10.0 mi Variable 6.9 mph 24.2 mph N/A   Clear
12:51 PM 53.1 °F - 37.0 °F 55% 30.00 in 10.0 mi NNW 10.4 mph 19.6 mph N/A   Clear
1:51 PM 55.9 °F - 37.9 °F 51% 29.99 in 10.0 mi NNW 10.4 mph 17.3 mph N/A   Clear
2:51 PM 55.0 °F - 39.9 °F 57% 30.00 in 10.0 mi NE 11.5 mph - N/A   Clear
3:51 PM 54.0 °F - 39.9 °F 59% 30.00 in 10.0 mi NE 8.1 mph - N/A   Clear
4:51 PM 53.1 °F - 39.0 °F 59% 30.00 in 10.0 mi NE 8.1 mph - N/A   Clear
5:51 PM 52.0 °F - 39.0 °F 61% 30.02 in 10.0 mi Variable 4.6 mph - N/A   Clear
6:51 PM 50.0 °F - 37.9 °F 63% 30.02 in 10.0 mi Variable 3.5 mph - N/A   Clear
7:51 PM 44.1 °F 40.8 °F 37.0 °F 76% 30.03 in 10.0 mi East 5.8 mph - N/A   Clear
8:51 PM 42.1 °F - 37.0 °F 82% 30.06 in 10.0 mi Calm Calm - N/A   Clear
9:51 PM 39.9 °F - 37.0 °F 89% 30.08 in 10.0 mi Calm Calm - N/A   Clear
10:51 PM 39.0 °F - 37.0 °F 93% 30.10 in 10.0 mi Calm Calm - N/A   Clear
11:51 PM 39.0 °F - 36.0 °F 89% 30.11 in 10.0 mi Calm Calm - N/A   Clear